Lexington Weather

Lexington, Massachusetts, USA

45°F
5/12/2021 3:52am 
  • Lexington Conditions: Clear
  • Temperature: 44.6°F / 7.0°CColder 1.3°F than last hour.
  • Dew Point: 32.4°FIncreased 0.9°Fsince last hour.
  • Relative Humidity: 62%Increased 5.0% since last hour.
  • Wind: Wind from W W Calm, 10-min avg: 1 mph, gust: 3 mph
  • Barometer: 29.91 in Steady
  • Visibility: 10 miles
  • Rain Today: 0.00 in
  •   

Regional Weather Roundup
for Boston / Norton, MA

        
000
ASUS41 KBOX 080704
RWRBOX

REGIONAL WEATHER ROUNDUP
NATIONAL WEATHER SERVICE BOSTON/NORTON MA
300 AM EDT SAT MAY 08 2021

NOTE:  "FAIR" INDICATES FEW OR NO CLOUDS BELOW 12,000 FEET WITH NO 
SIGNIFICANT WEATHER AND/OR OBSTRUCTIONS TO VISIBILITY.

MAZALL-080800-
EASTERN MASSACHUSETTS
  
CITY           SKY/WX    TMP DP  RH WIND       PRES   REMARKS
BOSTON         CLOUDY    47  37  68 N9        29.86F                  
BEVERLY        CLOUDY    42  38  85 N8        29.85F                  
LAWRENCE       CLOUDY    41  35  79 N3        29.89F                  
BEDFORD        CLOUDY    40  35  83 NW3       29.85F                  
BLUE HILL        N/A     42  37  82 N10       29.83F                  
NORWOOD        CLOUDY    39  35  86 CALM      29.85F                  
MARSHFIELD     CLOUDY    48  41  76 VRB6G12   29.83F                  
PLYMOUTH       CLOUDY    44  36  73 N6        29.83F                  
TAUNTON        CLOUDY    37  35  92 CALM      29.84F                  
NEW BEDFORD    CLOUDY    43  38  82 N3        29.83F                  
$$

MAZALL-080800-
CAPE COD AND THE ISLANDS
  
CITY           SKY/WX    TMP DP  RH WIND       PRES   REMARKS
FALMOUTH       CLEAR     45  36  70 N6        29.82F                  
HYANNIS        CLOUDY    48  35  60 NE9       29.79F                  
CHATHAM        CLOUDY    47  37  68 NE10      29.81F                  
PROVINCETOWN   CLOUDY    47  40  76 NE14G20   29.83F                  
NANTUCKET      CLOUDY    46  39  76 NE10      29.79F                  
MARTHAS VNYRD  CLOUDY    43  35  73 N5        29.82S                  
$$
 
MAZALL-080800-
CENTRAL AND WESTERN MASSACHUSETTS
  
CITY           SKY/WX    TMP DP  RH WIND       PRES   REMARKS
WORCESTER      CLOUDY    44  28  53 N7        29.85F                  
FITCHBURG      CLOUDY    41  33  73 NW3       29.88F                  
ORANGE         CLOUDY    42  37  82 CALM      29.87F                  
SPRINGFIELD    CLOUDY    46  37  70 CALM      29.84F                  
WESTFIELD      CLOUDY    45  41  86 CALM      29.86F                  
NORTH ADAMS    MOCLDY    48  40  73 E5        29.84F                  
PITTSFIELD     CLOUDY    44  37  76 N3        29.82F                  
$$
 
RIZALL-080800-
RHODE ISLAND
  
CITY           SKY/WX    TMP DP  RH WIND       PRES   REMARKS
PROVIDENCE     CLOUDY    45  35  68 NW7       29.85F                  
NEWPORT        CLOUDY    44  37  76 N7        29.82F                  
BLOCK ISLAND   CLOUDY    45  38  76 N5        29.83F                  
SMITHFIELD       N/A     41  35  79 N6        29.85F                  
WESTERLY       CLOUDY    42  34  73 CALM      29.84F                  
$$
 
CTZALL-080800-
CONNECTICUT
  
CITY           SKY/WX    TMP DP  RH WIND       PRES   REMARKS
BRADLEY INTL   CLOUDY    46  40  79 CALM      29.85F                  
HARTFORD       CLOUDY    47  39  74 CALM      29.85F                  
BRIDGEPORT     CLOUDY    50  42  74 N5        29.85F                  
DANBURY        CLOUDY    47  38  71 CALM      29.85F                  
GROTON         CLOUDY    45  34  65 N6        29.83F                  
NEW HAVEN      MOCLDY    48  42  80 N3        29.85F                  
CHESTER        FAIR      45  36  70 CALM      29.85S                  
MERIDEN        CLOUDY    46  40  79 CALM      29.85F                  
WILLIMANTIC    CLOUDY    44  39  82 N3        29.85F                  
OXFORD         CLOUDY    45  40  82 CALM      29.85F                  
$$

MEZ002-015-021-024-NHZ003-005-008-011-012-014-VTZ005-008-080800-
NORTHERN NEW ENGLAND
  
CITY           SKY/WX    TMP DP  RH WIND       PRES   REMARKS
PORTLAND ME    CLOUDY    40  38  93 N6        29.90F                  
BANGOR ME      MOCLDY    40  32  73 NW3       29.94F                  
CONCORD NH     CLOUDY    39  31  72 CALM      29.89F                  
MANCHESTER NH  CLOUDY    43  34  70 N3        29.87F                  
NASHUA NH      CLOUDY    40  38  93 NW3       29.89F                  
PORTSMOUTH NH  CLOUDY    42  37  81 N5        29.89F                  
JAFFREY NH     CLOUDY    38  33  82 CALM      29.86F                  
KEENE NH       CLOUDY    41  34  76 CALM      29.87F                  
BURLINGTON VT  CLOUDY    53  36  52 SE7       29.84S                  
MT. WASHINGTON SNOWSHWR  25  21  86 E23         N/A  WCI  10          
$$

NYZ052-076-080800-
EASTERN NEW YORK
  
CITY           SKY/WX    TMP DP  RH WIND       PRES   REMARKS
ALBANY         CLOUDY    49  37  63 SE8       29.85F                  
NEW YORK CITY  CLOUDY    53  34  48 SE8       29.84F                  
$$
 
ANZALL-080800-
MARINE OBSERVATIONS
  
STATION/POSITION TIME  TEMP    WIND        PRES    VSBY  WAVE
                       AIR SEA DIR/SP/G                  HT/PER
                 (UTC) (F)     (DEG/KT/KT) (MB)    (MI)  (FT/S)
BOSTON BUOY      0640   47 48   10/ 14/ 16 1010.8F
BUZZARDS BAY     0600          360/ 10/ 10 1011.2F
NANTUCKET SOUND  0640      52                N/A
MASS BAY-STELLWA 0604   48     360/ 12/ 14 1010.5F  1 7/8  1/ 8
ISLE OF SHOALS   0600   47      20/ 13/ 14 1011.5F
S OF BLOCK IS    0626      50                N/A           3/ 5
$$

......................KEY.........................
  SKY/WX - SKY CONDITION/PRESENT WEATHER
  TMP    - TEMPERATURE IN FAHRENHEIT
  DWPT   - DEWPOINT IN FAHRENHEIT
  RH     - RELATIVE HUMIDITY IN PERCENT
  WIND   - DIRECTION AND SPEED IN MPH
  PRES   - MEAN SEA LEVEL PRESSURE IN INCHES OF HG
  WCI    - WIND CHILL INDEX
  VSB    - VISIBILITY IN MILES
  HX     - HEAT INDEX
  TC     - TEMPERATURE IN CELSIUS
  VRB    - VARIABLE WIND DIRECTION
  N/A    - NOT AVAILABLE
  
      

Other recent Regional Weather Roundups

Wed May 12, 3:04am

Wed May 12, 2:04am

Wed May 12, 1:04am

Wed May 12, 12:05am

Tue May 11, 11:05pm

Tue May 11, 10:04pm

Tue May 11, 9:05pm

Tue May 11, 8:05pm

Tue May 11, 7:04pm

Tue May 11, 6:04pm

Tue May 11, 5:04pm

Tue May 11, 4:05pm

Tue May 11, 3:04pm

Tue May 11, 2:05pm

Tue May 11, 1:04pm

Tue May 11, 12:05pm

Tue May 11, 11:05am

Tue May 11, 10:04am

Tue May 11, 9:04am

Tue May 11, 8:04am

Tue May 11, 7:05am

Tue May 11, 6:04am

Tue May 11, 5:04am

Tue May 11, 4:04am

Tue May 11, 3:04am

Tue May 11, 2:04am

Tue May 11, 1:04am

Tue May 11, 12:04am

Mon May 10, 11:04pm

Mon May 10, 10:04pm

Mon May 10, 9:05pm

Mon May 10, 8:04pm

Mon May 10, 7:05pm

Mon May 10, 6:04pm

Mon May 10, 5:04pm

Mon May 10, 4:04pm

Mon May 10, 3:04pm

Mon May 10, 2:04pm

Mon May 10, 1:04pm

Mon May 10, 12:04pm

Mon May 10, 11:05am

Mon May 10, 10:04am

Mon May 10, 9:04am

Mon May 10, 8:04am

Mon May 10, 7:04am

Mon May 10, 6:04am

Mon May 10, 5:05am

Mon May 10, 4:04am

Mon May 10, 3:04am

Mon May 10, 2:04am

Mon May 10, 1:04am

Mon May 10, 12:04am

Sun May 9, 11:04pm

Sun May 9, 10:04pm

Sun May 9, 9:04pm

Sun May 9, 8:04pm

Sun May 9, 7:05pm

Sun May 9, 6:04pm

Sun May 9, 5:04pm

Sun May 9, 4:04pm

Sun May 9, 3:04pm

Sun May 9, 2:04pm

Sun May 9, 1:05pm

Sun May 9, 12:04pm

Sun May 9, 11:05am

Sun May 9, 10:04am

Sun May 9, 9:04am

Sun May 9, 8:04am

Sun May 9, 7:04am

Sun May 9, 6:04am

Sun May 9, 5:04am

Sun May 9, 4:04am

Sun May 9, 3:04am

Sun May 9, 2:04am

Sun May 9, 1:05am

Sun May 9, 12:04am

Sat May 8, 11:05pm

Sat May 8, 10:04pm

Sat May 8, 9:05pm

Sat May 8, 8:04pm

Sat May 8, 7:04pm

Sat May 8, 6:04pm

Sat May 8, 5:05pm

Sat May 8, 4:04pm

Sat May 8, 3:05pm

Sat May 8, 2:05pm

Sat May 8, 1:05pm

Sat May 8, 12:04pm

Sat May 8, 11:05am

Sat May 8, 10:04am

Sat May 8, 9:04am

Sat May 8, 8:04am

Sat May 8, 7:04am

Sat May 8, 6:04am

Sat May 8, 5:04am

Sat May 8, 4:04am

Sat May 8, 2:04am

Sat May 8, 1:05am

Sat May 8, 12:04am

Fri May 7, 11:04pm

Fri May 7, 10:05pm

Fri May 7, 9:04pm

Fri May 7, 8:04pm

Fri May 7, 7:05pm

Fri May 7, 6:04pm

Fri May 7, 5:05pm

Fri May 7, 4:04pm

Fri May 7, 3:04pm

Fri May 7, 2:05pm

Fri May 7, 1:04pm

Fri May 7, 12:04pm

Fri May 7, 11:05am

Fri May 7, 10:04am

Fri May 7, 9:04am

Fri May 7, 8:05am

Fri May 7, 7:04am

Fri May 7, 6:04am

Fri May 7, 5:04am

Fri May 7, 4:04am

Fri May 7, 3:04am

Fri May 7, 2:05am

Fri May 7, 1:04am

Fri May 7, 12:05am

Thu May 6, 11:04pm

Thu May 6, 10:04pm

Thu May 6, 9:05pm

Thu May 6, 8:04pm

Thu May 6, 7:04pm

Thu May 6, 6:04pm

Thu May 6, 5:05pm

Thu May 6, 4:04pm

Thu May 6, 3:04pm

Thu May 6, 2:05pm

Thu May 6, 1:04pm

Thu May 6, 12:04pm

Thu May 6, 11:04am

Thu May 6, 10:04am

Thu May 6, 9:04am

Thu May 6, 8:04am

Thu May 6, 7:04am

Thu May 6, 6:04am

Thu May 6, 5:04am

Thu May 6, 4:04am

Thu May 6, 3:04am

Thu May 6, 2:05am

Thu May 6, 1:04am

Thu May 6, 12:05am

Wed May 5, 11:04pm

Wed May 5, 10:04pm

Wed May 5, 9:05pm

Wed May 5, 8:04pm

Wed May 5, 7:05pm

Wed May 5, 6:04pm

Wed May 5, 5:04pm

Wed May 5, 4:04pm

Wed May 5, 3:04pm

Wed May 5, 2:05pm

Wed May 5, 1:05pm

Wed May 5, 12:04pm

Wed May 5, 11:05am

Wed May 5, 10:04am

Wed May 5, 9:04am

Wed May 5, 8:04am

Wed May 5, 7:04am

Wed May 5, 6:05am

Wed May 5, 5:04am

Wed May 5, 4:04am

Meta data:

ID: ba2d8471-71f9-4795-9301-8c2602be1402
Link: https://api.weather.gov/products/ba2d8471-71f9-4795-9301-8c2602be1402